Time,TemperatureF,DewpointF,PressureIn,WindDirection,WindDirectionDegrees,WindSpeedMPH,WindSpeedGustMPH,Humidity,HourlyPrecipIn,Conditions,Clouds,dailyrainin,SoftwareType,DateUTC
2013-04-21 00:14:00,39.8,15.0,30.23,West,261,5.0,-999.0,36,-99.99,,,0.00,weatherlink.com 1.10,2013-04-21 04:14:00,
2013-04-21 00:29:00,39.2,14.0,30.25,WSW,257,4.0,-999.0,36,-99.99,,,0.00,weatherlink.com 1.10,2013-04-21 04:29:00,
2013-04-21 00:44:00,38.6,14.0,30.25,NW,304,3.0,-999.0,37,-99.99,,,0.00,weatherlink.com 1.10,2013-04-21 04:44:00,
2013-04-21 00:59:00,38.2,14.0,30.25,NW,313,5.0,-999.0,38,-99.99,,,0.00,weatherlink.com 1.10,2013-04-21 04:59:00,
2013-04-21 01:14:00,37.8,15.0,30.25,West,278,5.0,-999.0,40,-99.99,,,0.00,weatherlink.com 1.10,2013-04-21 05:14:00,
2013-04-21 01:29:00,37.3,15.0,30.25,WNW,292,2.0,-999.0,41,-99.99,,,0.00,weatherlink.com 1.10,2013-04-21 05:29:00,
2013-04-21 01:44:00,37.0,16.0,30.27,WNW,295,1.0,-999.0,42,-99.99,,,0.00,weatherlink.com 1.10,2013-04-21 05:44:00,
2013-04-21 01:59:00,36.8,15.0,30.27,SSW,209,6.0,-999.0,41,-99.99,,,0.00,weatherlink.com 1.10,2013-04-21 05:59:00,
2013-04-21 02:14:00,36.6,15.0,30.27,NNE,18,0.0,-999.0,41,-99.99,,,0.00,weatherlink.com 1.10,2013-04-21 06:14:00,
2013-04-21 02:29:00,36.2,15.0,30.28,SW,226,0.0,-999.0,42,-99.99,,,0.00,weatherlink.com 1.10,2013-04-21 06:29:00,
2013-04-21 02:44:00,35.8,15.0,30.28,SW,215,1.0,-999.0,43,-99.99,,,0.00,weatherlink.com 1.10,2013-04-21 06:44:00,
2013-04-21 02:59:00,35.3,16.0,30.29,SW,215,0.0,-999.0,45,-99.99,,,0.00,weatherlink.com 1.10,2013-04-21 06:59:00,
2013-04-21 03:14:00,34.6,16.0,30.30,SW,215,0.0,-999.0,47,-99.99,,,0.00,weatherlink.com 1.10,2013-04-21 07:14:00,
2013-04-21 03:29:00,34.1,16.0,30.31,SW,215,2.0,-999.0,47,-99.99,,,0.00,weatherlink.com 1.10,2013-04-21 07:29:00,
2013-04-21 03:44:00,34.0,17.0,30.31,SSW,199,0.0,-999.0,49,-99.99,,,0.00,weatherlink.com 1.10,2013-04-21 07:44:00,
2013-04-21 03:59:00,33.2,18.0,30.32,SSW,199,1.0,-999.0,53,-99.99,,,0.00,weatherlink.com 1.10,2013-04-21 07:59:00,
2013-04-21 04:14:00,32.5,18.0,30.31,South,191,0.0,-999.0,55,-99.99,,,0.00,weatherlink.com 1.10,2013-04-21 08:14:00,
2013-04-21 04:29:00,31.9,18.0,30.32,South,191,0.0,-999.0,57,-99.99,,,0.00,weatherlink.com 1.10,2013-04-21 08:29:00,
2013-04-21 04:44:00,31.3,18.0,30.33,South,191,2.0,-999.0,59,-99.99,,,0.00,weatherlink.com 1.10,2013-04-21 08:44:00,
2013-04-21 04:59:00,30.9,18.0,30.34,SSW,192,0.0,-999.0,59,-99.99,,,0.00,weatherlink.com 1.10,2013-04-21 08:59:00,
2013-04-21 05:14:00,30.9,18.0,30.34,South,181,0.0,-999.0,59,-99.99,,,0.00,weatherlink.com 1.10,2013-04-21 09:14:00,
2013-04-21 05:29:00,30.7,18.0,30.35,South,181,0.0,-999.0,60,-99.99,,,0.00,weatherlink.com 1.10,2013-04-21 09:29:00,
2013-04-21 05:44:00,30.3,19.0,30.36,South,182,0.0,-999.0,63,-99.99,,,0.00,weatherlink.com 1.10,2013-04-21 09:44:00,
2013-04-21 05:59:00,30.1,19.0,30.37,South,182,0.0,-999.0,64,-99.99,,,0.00,weatherlink.com 1.10,2013-04-21 09:59:00,
2013-04-21 06:14:00,29.8,19.0,30.39,South,181,3.0,-999.0,64,-99.99,,,0.00,weatherlink.com 1.10,2013-04-21 10:14:00,
2013-04-21 06:29:00,30.0,20.0,30.40,South,181,0.0,-999.0,66,-99.99,,,0.00,weatherlink.com 1.10,2013-04-21 10:29:00,
2013-04-21 06:44:00,30.3,20.0,30.41,South,181,0.0,-999.0,65,-99.99,,,0.00,weatherlink.com 1.10,2013-04-21 10:44:00,
2013-04-21 06:59:00,30.7,20.0,30.43,South,182,0.0,-999.0,64,-99.99,,,0.00,weatherlink.com 1.10,2013-04-21 10:59:00,
2013-04-21 07:14:00,32.4,19.0,30.44,West,265,2.0,-999.0,59,-99.99,,,0.00,weatherlink.com 1.10,2013-04-21 11:14:00,
2013-04-21 07:29:00,34.9,17.0,30.44,WSW,244,0.0,-999.0,49,-99.99,,,0.00,weatherlink.com 1.10,2013-04-21 11:29:00,
2013-04-21 07:44:00,36.3,16.0,30.45,NE,35,6.0,-999.0,44,-99.99,,,0.00,weatherlink.com 1.10,2013-04-21 11:44:00,
2013-04-21 07:59:00,37.0,15.0,30.46,NE,35,5.0,-999.0,41,-99.99,,,0.00,weatherlink.com 1.10,2013-04-21 11:59:00,
2013-04-21 08:14:00,37.8,16.0,30.47,North,3,4.0,-999.0,41,-99.99,,,0.00,weatherlink.com 1.10,2013-04-21 12:14:00,
2013-04-21 08:29:00,38.2,15.0,30.48,NNE,17,0.0,-999.0,39,-99.99,,,0.00,weatherlink.com 1.10,2013-04-21 12:29:00,
2013-04-21 08:44:00,39.5,16.0,30.48,NNE,24,2.0,-999.0,38,-99.99,,,0.00,weatherlink.com 1.10,2013-04-21 12:44:00,
2013-04-21 08:59:00,39.6,15.0,30.48,NE,35,3.0,-999.0,37,-99.99,,,0.00,weatherlink.com 1.10,2013-04-21 12:59:00,
2013-04-21 09:14:00,40.6,15.0,30.50,ENE,76,2.0,-999.0,36,-99.99,,,0.00,weatherlink.com 1.10,2013-04-21 13:14:00,
2013-04-21 09:29:00,41.5,16.0,30.50,NNE,21,1.0,-999.0,36,-99.99,,,0.00,weatherlink.com 1.10,2013-04-21 13:29:00,
2013-04-21 09:44:00,41.3,16.0,30.50,North,8,3.0,-999.0,36,-99.99,,,0.00,weatherlink.com 1.10,2013-04-21 13:44:00,
2013-04-21 09:59:00,41.5,15.0,30.51,WNW,301,5.0,-999.0,34,-99.99,,,0.00,weatherlink.com 1.10,2013-04-21 13:59:00,
2013-04-21 10:14:00,42.2,14.0,30.51,WSW,253,5.0,-999.0,32,-99.99,,,0.00,weatherlink.com 1.10,2013-04-21 14:14:00,
2013-04-21 10:29:00,42.1,15.0,30.52,NNE,17,7.0,-999.0,33,-99.99,,,0.00,weatherlink.com 1.10,2013-04-21 14:29:00,
2013-04-21 10:44:00,42.6,14.0,30.52,South,175,2.0,-999.0,31,-99.99,,,0.00,weatherlink.com 1.10,2013-04-21 14:44:00,
2013-04-21 10:59:00,44.1,13.0,30.52,NE,56,2.0,-999.0,28,-99.99,,,0.00,weatherlink.com 1.10,2013-04-21 14:59:00,
2013-04-21 11:14:00,44.5,13.0,30.53,North,8,5.0,-999.0,28,-99.99,,,0.00,weatherlink.com 1.10,2013-04-21 15:14:00,
2013-04-21 11:29:00,45.2,13.0,30.53,NW,309,5.0,-999.0,27,-99.99,,,0.00,weatherlink.com 1.10,2013-04-21 15:29:00,
2013-04-21 11:44:00,44.8,13.0,30.54,West,271,2.0,-999.0,28,-99.99,,,0.00,weatherlink.com 1.10,2013-04-21 15:44:00,
2013-04-21 11:59:00,45.8,14.0,30.54,NNE,30,2.0,-999.0,28,-99.99,,,0.00,weatherlink.com 1.10,2013-04-21 15:59:00,
2013-04-21 12:14:00,46.2,12.0,30.54,NNE,21,7.0,-999.0,25,-99.99,,,0.00,weatherlink.com 1.10,2013-04-21 16:14:00,
2013-04-21 12:29:00,47.0,13.0,30.54,NNE,16,6.0,-999.0,25,-99.99,,,0.00,weatherlink.com 1.10,2013-04-21 16:29:00,
2013-04-21 12:44:00,48.0,14.0,30.53,North,6,4.0,-999.0,26,-99.99,,,0.00,weatherlink.com 1.10,2013-04-21 16:44:00,
2013-04-21 12:59:00,49.4,12.0,30.53,NNE,28,1.0,-999.0,22,-99.99,,,0.00,weatherlink.com 1.10,2013-04-21 16:59:00,
2013-04-21 13:14:00,49.2,12.0,30.52,NE,37,3.0,-999.0,22,-99.99,,,0.00,weatherlink.com 1.10,2013-04-21 17:14:00,
2013-04-21 13:29:00,49.5,13.0,30.52,NE,34,6.0,-999.0,23,-99.99,,,0.00,weatherlink.com 1.10,2013-04-21 17:29:00,
2013-04-21 13:44:00,50.4,12.0,30.52,NE,41,3.0,-999.0,21,-99.99,,,0.00,weatherlink.com 1.10,2013-04-21 17:44:00,
2013-04-21 13:59:00,50.2,11.0,30.52,NNE,23,8.0,-999.0,21,-99.99,,,0.00,weatherlink.com 1.10,2013-04-21 17:59:00,
2013-04-21 14:14:00,51.6,12.0,30.53,ENE,71,2.0,-999.0,20,-99.99,,,0.00,weatherlink.com 1.10,2013-04-21 18:14:00,
2013-04-21 14:29:00,52.8,15.0,30.53,North,1,8.0,-999.0,22,-99.99,,,0.00,weatherlink.com 1.10,2013-04-21 18:29:00,
2013-04-21 14:44:00,52.3,14.0,30.53,East,86,0.0,-999.0,22,-99.99,,,0.00,weatherlink.com 1.10,2013-04-21 18:44:00,
2013-04-21 14:59:00,53.1,12.0,30.52,ENE,65,2.0,-999.0,19,-99.99,,,0.00,weatherlink.com 1.10,2013-04-21 18:59:00,
2013-04-21 15:14:00,53.1,12.0,30.52,NNE,25,4.0,-999.0,19,-99.99,,,0.00,weatherlink.com 1.10,2013-04-21 19:14:00,
2013-04-21 15:30:00,53.9,12.0,30.53,North,359,3.0,-999.0,19,-99.99,,,0.00,weatherlink.com 1.10,2013-04-21 19:30:00,
2013-04-21 15:44:00,53.8,11.0,30.53,WNW,299,1.0,-999.0,18,-99.99,,,0.00,weatherlink.com 1.10,2013-04-21 19:44:00,
2013-04-21 15:59:00,53.8,15.0,30.52,ENE,64,2.0,-999.0,21,-99.99,,,0.00,weatherlink.com 1.10,2013-04-21 19:59:00,
2013-04-21 16:14:00,53.8,11.0,30.52,North,6,2.0,-999.0,18,-99.99,,,0.00,weatherlink.com 1.10,2013-04-21 20:14:00,
2013-04-21 16:30:00,53.3,11.0,30.52,East,80,2.0,-999.0,18,-99.99,,,0.00,weatherlink.com 1.10,2013-04-21 20:30:00,
2013-04-21 16:44:00,53.3,9.0,30.52,ENE,78,0.0,-999.0,17,-99.99,,,0.00,weatherlink.com 1.10,2013-04-21 20:44:00,
2013-04-21 17:00:00,53.2,10.0,30.53,SSE,158,0.0,-999.0,18,-99.99,,,0.00,weatherlink.com 1.10,2013-04-21 21:00:00,
2013-04-21 17:14:00,53.9,10.0,30.53,SE,128,0.0,-999.0,17,-99.99,,,0.00,weatherlink.com 1.10,2013-04-21 21:14:00,
2013-04-21 17:30:00,52.8,8.0,30.53,NNE,16,6.0,-999.0,16,-99.99,,,0.00,weatherlink.com 1.10,2013-04-21 21:30:00,
2013-04-21 17:44:00,52.2,12.0,30.53,NE,40,0.0,-999.0,20,-99.99,,,0.00,weatherlink.com 1.10,2013-04-21 21:44:00,
2013-04-21 17:59:00,51.7,10.0,30.54,NNE,27,3.0,-999.0,19,-99.99,,,0.00,weatherlink.com 1.10,2013-04-21 21:59:00,
2013-04-21 18:14:00,51.4,9.0,30.54,NE,34,1.0,-999.0,18,-99.99,,,0.00,weatherlink.com 1.10,2013-04-21 22:14:00,
2013-04-21 18:29:00,51.4,11.0,30.55,NE,37,0.0,-999.0,20,-99.99,,,0.00,weatherlink.com 1.10,2013-04-21 22:29:00,
2013-04-21 18:44:00,51.4,11.0,30.55,ENE,65,1.0,-999.0,20,-99.99,,,0.00,weatherlink.com 1.10,2013-04-21 22:44:00,
2013-04-21 18:59:00,50.8,12.0,30.56,ENE,59,0.0,-999.0,21,-99.99,,,0.00,weatherlink.com 1.10,2013-04-21 22:59:00,
2013-04-21 19:14:00,50.1,9.0,30.57,ENE,64,0.0,-999.0,19,-99.99,,,0.00,weatherlink.com 1.10,2013-04-21 23:14:00,
2013-04-21 19:29:00,49.2,14.0,30.58,ENE,64,0.0,-999.0,24,-99.99,,,0.00,weatherlink.com 1.10,2013-04-21 23:29:00,
2013-04-21 19:44:00,47.6,16.0,30.59,ENE,64,1.0,-999.0,28,-99.99,,,0.00,weatherlink.com 1.10,2013-04-21 23:44:00,
2013-04-21 20:00:00,46.0,16.0,30.59,ENE,64,0.0,-999.0,30,-99.99,,,0.00,weatherlink.com 1.10,2013-04-22 00:00:00,
2013-04-21 20:14:00,44.9,18.0,30.60,ENE,64,1.0,-999.0,34,-99.99,,,0.00,weatherlink.com 1.10,2013-04-22 00:14:00,
2013-04-21 20:30:00,44.1,17.0,30.61,ENE,64,0.0,-999.0,34,-99.99,,,0.00,weatherlink.com 1.10,2013-04-22 00:30:00,
2013-04-21 20:45:00,43.2,19.0,30.62,ENE,64,0.0,-999.0,38,-99.99,,,0.00,weatherlink.com 1.10,2013-04-22 00:45:00,
2013-04-21 21:00:00,41.9,20.0,30.63,ENE,64,0.0,-999.0,41,-99.99,,,0.00,weatherlink.com 1.10,2013-04-22 01:00:00,
2013-04-21 21:15:00,41.3,20.0,30.64,ENE,64,0.0,-999.0,42,-99.99,,,0.00,weatherlink.com 1.10,2013-04-22 01:15:00,
2013-04-21 21:30:00,40.9,22.0,30.64,ENE,64,0.0,-999.0,47,-99.99,,,0.00,weatherlink.com 1.10,2013-04-22 01:30:00,
2013-04-21 21:45:00,40.2,22.0,30.64,ENE,64,0.0,-999.0,49,-99.99,,,0.00,weatherlink.com 1.10,2013-04-22 01:45:00,
2013-04-21 22:00:00,39.6,23.0,30.65,ENE,64,0.0,-999.0,51,-99.99,,,0.00,weatherlink.com 1.10,2013-04-22 02:00:00,
2013-04-21 22:15:00,38.8,24.0,30.65,ENE,64,0.0,-999.0,55,-99.99,,,0.00,weatherlink.com 1.10,2013-04-22 02:15:00,
2013-04-21 22:30:00,38.2,24.0,30.65,ENE,64,0.0,-999.0,57,-99.99,,,0.00,weatherlink.com 1.10,2013-04-22 02:30:00,
2013-04-21 22:45:00,37.8,24.0,30.66,ENE,64,0.0,-999.0,59,-99.99,,,0.00,weatherlink.com 1.10,2013-04-22 02:45:00,
2013-04-21 23:00:00,37.2,25.0,30.67,ENE,64,0.0,-999.0,61,-99.99,,,0.00,weatherlink.com 1.10,2013-04-22 03:00:00,
2013-04-21 23:14:00,36.3,25.0,30.67,ENE,64,0.0,-999.0,63,-99.99,,,0.00,weatherlink.com 1.10,2013-04-22 03:14:00,
2013-04-21 23:29:00,35.8,25.0,30.67,ENE,64,0.0,-999.0,64,-99.99,,,0.00,weatherlink.com 1.10,2013-04-22 03:29:00,
2013-04-21 23:44:00,35.2,25.0,30.67,ENE,64,0.0,-999.0,66,-99.99,,,0.00,weatherlink.com 1.10,2013-04-22 03:44:00,
2013-04-21 23:59:00,34.7,25.0,30.67,ENE,64,0.0,-999.0,67,-99.99,,,0.00,weatherlink.com 1.10,2013-04-22 03:59:00,